AZERSPACE 2 (IS-38)

Last updated on Tue Jul 01 2025 00:02:47 GMT+0000 (Coordinated Universal Time)

1 43632U 18074A 25181.57683444 .00000136 00000+0 00000+0 0 9994 2 43632 0.0203 23.1602 0001474 76.9720 71.5238 1.00269848 24927
UTC large
Height (km)
Speed (km/s)
/
Latitude / Longitude
Inclination (degrees)
Orbital Period (minutes)
Azimuth
Elevation
Range (km)
Doppler Factor

Next 0 passes for location: London (51.5072 / 0.1276)

Sorry there are no passes over London.